CDT,Max TemperatureF,Mean TemperatureF,Min TemperatureF,Max Dew PointF,MeanDew PointF,Min DewpointF,Max Humidity, Mean Humidity, Min Humidity, Max Sea Level PressureIn, Mean Sea Level PressureIn, Min Sea Level PressureIn, Max VisibilityMiles, Mean VisibilityMiles, Min VisibilityMiles, Max Wind SpeedMPH, Mean Wind SpeedMPH, Max Gust SpeedMPH,PrecipitationIn, CloudCover, Events, WindDirDegrees
2012-3-1,52,36,19,25,19,15,84,56,28,29.83,29.75,29.66,10,10,10,28,7,33,0.00,1,,31
2012-3-2,47,31,14,22,16,11,92,60,27,30.06,29.93,29.81,10,10,10,32,12,41,0.00,0,,317
2012-3-3,46,31,15,27,18,11,84,58,31,30.08,30.01,29.91,10,10,2,30,10,41,T,4,,294
2012-3-4,61,42,23,33,27,21,84,58,31,30.19,30.03,29.88,10,10,10,31,10,41,0.00,4,,314
2012-3-5,70,47,23,30,26,21,88,54,20,30.19,29.97,29.76,10,10,10,20,8,26,0.00,0,,180
2012-3-6,76,49,21,31,22,14,88,49,10,29.75,29.57,29.34,10,10,10,24,9,32,0.00,0,,174
2012-3-7,55,38,20,32,24,16,82,60,38,30.27,29.85,29.41,10,10,10,35,15,46,0.00,6,,353
2012-3-8,53,33,13,23,15,10,92,56,19,30.53,30.44,30.29,10,10,10,23,8,29,0.00,0,,304
2012-3-9,67,42,17,22,15,12,84,48,12,30.54,30.39,30.17,10,10,10,22,8,28,0.00,0,,226
2012-3-10,74,53,31,37,24,10,56,38,20,30.16,30.02,29.88,10,10,10,26,13,33,0.00,0,,198
2012-3-11,47,44,40,41,39,34,96,81,65,29.92,29.75,29.62,10,8,2,18,9,23,0.52,7,Rain,162
2012-3-12,75,52,28,41,32,23,100,58,16,29.92,29.76,29.60,10,10,10,22,8,29,0.00,0,,253
2012-3-13,78,53,28,37,30,25,85,51,17,29.94,29.83,29.70,10,10,10,20,4,24,0.00,0,,169
2012-3-14,75,53,30,35,30,26,82,50,17,29.95,29.88,29.70,10,9,0,15,6,22,0.00,0,,29
2012-3-15,79,55,30,35,32,27,92,54,16,30.02,29.96,29.91,10,10,10,15,5,21,0.00,0,,331
2012-3-16,82,56,29,46,38,31,92,56,20,29.94,29.81,29.65,10,10,8,25,7,33,0.00,0,,145
2012-3-17,82,59,36,53,44,28,93,55,17,29.71,29.65,29.51,10,5,0,25,8,37,0.00,5,Fog,179
2012-3-18,84,69,53,57,50,33,93,56,18,29.55,29.46,29.36,10,10,10,38,19,51,T,1,Rain-Thunderstorm,166
2012-3-19,67,55,43,56,31,17,84,51,17,29.55,29.46,29.37,10,10,10,31,8,41,0.00,3,,182
2012-3-20,59,49,39,37,31,25,82,59,35,29.96,29.82,29.57,10,10,10,25,12,33,0.00,3,,28
2012-3-21,66,47,27,46,34,24,85,58,30,30.02,29.94,29.88,10,10,10,18,9,24,T,4,,14
2012-3-22,63,51,38,54,46,37,100,70,39,29.96,29.89,29.82,10,8,2,22,7,26,0.30,6,Rain,142
2012-3-23,70,50,30,47,37,28,100,69,37,30.02,29.97,29.91,10,5,0,10,3,15,0.00,2,Fog,253
2012-3-24,73,54,34,49,42,34,92,65,38,30.11,30.01,29.94,10,10,9,16,6,23,0.00,0,,24
2012-3-25,72,55,37,56,46,36,92,75,57,30.12,30.03,29.92,10,9,2,20,6,24,0.00,2,,112
2012-3-26,86,68,49,54,46,22,96,58,20,29.90,29.69,29.46,10,8,1,36,17,45,0.00,1,,142
2012-3-27,71,55,38,34,27,21,73,46,19,29.99,29.86,29.67,10,10,10,33,14,43,0.00,0,,298
2012-3-28,76,54,32,52,38,29,93,57,21,30.02,29.93,29.83,10,10,6,18,6,25,0.00,0,,129
2012-3-29,72,54,36,55,43,34,92,64,35,29.84,29.80,29.74,10,9,6,28,9,36,0.00,2,,12
2012-3-30,80,57,34,44,37,31,92,56,19,29.87,29.77,29.67,10,10,10,30,8,36,0.00,0,,266
2012-3-31,86,61,35,42,38,32,92,56,19,29.81,29.71,29.58,10,10,10,14,5,17,0.00,0,,250